15 daagse weersverwachting TromsÝ (NO)

  • Overzicht
  • Per uur
  • 15 dagen
  • Extra
  • Vergelijk
  • Kaarten
  • Dagkaart
  • Meer »
  • Info
  • Statistieken
  • Directe link
    Temp 6h Neerslag Wind  
 05:08     20:25    Daglengte: 15:17 Vandaag
14:00
-2°
 
5
20:00
-3°
 
4
 05:04     20:29    Daglengte: 15:25 Morgen
02:00
-3°
3.3 mm
4
warningclass
08:00
-2°
6.7 mm
5
warningclass
14:00
-1°
8.0 mm
5
warningclass
20:00
-2°
11.6 mm
3
warningclass
 04:59     20:33    Daglengte: 15:34 Zaterdag 11 Apr
02:00
-2°
9.4 mm
3
warningclass
08:00
-2°
16.7 mm
3
warningclass
14:00
19.4 mm
4
warningclass
20:00
22.7 mm
4
warningclass
 04:54     20:38    Daglengte: 15:44 Zondag 12 Apr
02:00
-1°
27.8 mm
2
warningclass
08:00
-2°
41.9 mm
2
warningclass
Locatie info
Region: Troms
Latitude: 69.6514°N
Longitude: 18.9561°E
0 masl
Postcode: 9008
Temp/Neerslag /Baro Onweer/DauwpuntSneeuw
    Temp Baro 1h Neerslag Dauwpunt Wind UV BewolkingSneeuw  
 05:08     20:25    Daglengte: 15:17 Vandaag
12:00
-2°
Voelt als: -7.9°
1009.7 hPa
48%
-7.0°
5
Windvlaag: 5.7 km/h
59%11 cm
13:00
-2°
Voelt als: -7.6°
1010.5 hPa
82%
-7.1°
5
Windvlaag: 5.6 km/h
75%10 cm
14:00
-2°
Voelt als: -7.5°
1011.3 hPa
78%
-7.3°
5
Windvlaag: 5.9 km/h
57%10 cm
15:00
-2°
Voelt als: -6.9°
1011.6 hPa
65%
-7.5°
4
Windvlaag: 6.6 km/h
42%11 cm
16:00
-2°
Voelt als: -6.0°
1011.8 hPa
18%
-8.3°
3
Windvlaag: 5 km/h
41%11 cm
17:00
-2°
Voelt als: -5.6°
1011.8 hPa
23%
-8.4°
2
Windvlaag: 4 km/h
43%11 cm
18:00
-3°
Voelt als: -6.1°
1011.7 hPa
46%
-7.7°
3
Windvlaag: 4.2 km/h
74%11 cm
19:00
-3°
Voelt als: -7.2°
1011.2 hPa
82%
-6.4°
3
Windvlaag: 4.9 km/h
77%11 cm
20:00
-3°
Voelt als: -7.7°
1010.8 hPa
82%
-6.1°
4
Windvlaag: 5.4 km/h
76%11 cm
21:00
-3°
Voelt als: -8.8°
1010.5 hPa
82%
-6.1°
6
Windvlaag: 7.7 km/h
70%11 cm
22:00
-3°
Voelt als: -8.3°
1010.5 hPa 0.5 mm
82%
-5.4°
5
Windvlaag: 8.2 km/h
87%11 cm warningclass
23:00
-3°
Voelt als: -7.2°
1010.5 hPa 0.4 mm
82%
-5.0°
4
Windvlaag: 7.8 km/h
73%11 cm warningclass
 05:04     20:29    Daglengte: 15:25 Morgen
00:00
-2°
Voelt als: -6.8°
1010.5 hPa 0.6 mm
82%
-4.9°
3
Windvlaag: 5.4 km/h
88%12 cm warningclass
01:00
-2°
Voelt als: -7.4°
1010.4 hPa 0.8 mm
82%
-4.5°
4
Windvlaag: 5.6 km/h
86%13 cm warningclass
02:00
-3°
Voelt als: -7.4°
1010.8 hPa 1.0 mm
82%
-4.6°
4
Windvlaag: 6.2 km/h
76%13 cm warningclass
03:00
-3°
Voelt als: -7.5°
1010.7 hPa 0.9 mm
82%
-5.3°
4
Windvlaag: 6.4 km/h
76%13 cm warningclass
04:00
-3°
Voelt als: -7.4°
1010.7 hPa 1.0 mm
82%
-5.9°
4
Windvlaag: 6.3 km/h
86%13 cm warningclass
05:00
-3°
Voelt als: -7.2°
1010.6 hPa 1.0 mm
82%
-5.7°
3
Windvlaag: 7.1 km/h
73%13 cm warningclass
06:00
-3°
Voelt als: -7.2°
1010.4 hPa 1.1 mm
82%
-5.9°
3
Windvlaag: 3.8 km/h
61%14 cm warningclass
07:00
-3°
Voelt als: -7.5°
1010.4 hPa 1.4 mm
82%
-6.0°
4
Windvlaag: 3.7 km/h
89%15 cm warningclass
08:00
-2°
Voelt als: -7.7°
1010.1 hPa 1.3 mm
82%
-5.3°
5
Windvlaag: 5.7 km/h
80%15 cm warningclass
09:00
-2°
Voelt als: -6.7°
1010.1 hPa 1.4 mm
82%
-4.4°
4
Windvlaag: 7.5 km/h
89%15 cm warningclass
10:00
-2°
Voelt als: -6.2°
1010.2 hPa 1.2 mm
82%
-4.4°
4
Windvlaag: 6 km/h
86%15 cm warningclass
11:00
-1°
Voelt als: -6.0°
1010.3 hPa 1.3 mm
82%
-5.0°
4
Windvlaag: 6.1 km/h
85%15 cm warningclass
12:00
-1°
Voelt als: -6.6°
1010.3 hPa 1.2 mm
82%
-3.7°
5
Windvlaag: 7.7 km/h
89%15 cm warningclass
13:00
-1°
Voelt als: -6.0°
1010.2 hPa 1.4 mm
82%
-4.0°
5
Windvlaag: 6.8 km/h
89%16 cm warningclass
14:00
-1°
Voelt als: -6.2°
1010.3 hPa 1.5 mm
82%
-3.6°
5
Windvlaag: 8 km/h
88%16 cm warningclass
15:00
-1°
Voelt als: -5.8°
1010.4 hPa 1.6 mm
82%
-4.6°
4
Windvlaag: 7.6 km/h
90%16 cm warningclass
16:00
-1°
Voelt als: -5.2°
1010.9 hPa 2.3 mm
82%
-3.8°
4
Windvlaag: 6.7 km/h
90%16 cm warningclass
17:00
-1°
Voelt als: -5.2°
1011.2 hPa 2.0 mm
82%
-4.4°
3
Windvlaag: 5.2 km/h
87%17 cm warningclass
18:00
-1°
Voelt als: -6.3°
1011.7 hPa 2.0 mm
82%
-4.9°
4
Windvlaag: 5.7 km/h
88%17 cm warningclass
19:00
-2°
Voelt als: -5.2°
1012.1 hPa 1.5 mm
82%
-3.9°
3
Windvlaag: 6.3 km/h
85%17 cm warningclass
20:00
-2°
Voelt als: -5.8°
1012.6 hPa 2.1 mm
82%
-3.8°
3
Windvlaag: 3.5 km/h
84%17 cm warningclass
21:00
-2°
Voelt als: -6.1°
1013.0 hPa
82%
-4.4°
3
Windvlaag: 3.9 km/h
86%18 cm
22:00
-2°
Voelt als: -5.5°
1013.3 hPa 2.2 mm
82%
-5.1°
2
Windvlaag: 4.3 km/h
76%18 cm warningclass
23:00
-2°
Voelt als: -5.8°
1013.8 hPa 1.8 mm
82%
-4.1°
2
Windvlaag: 5 km/h
85%18 cm warningclass
 04:59     20:33    Daglengte: 15:34 Zaterdag 11 Apr
00:00
-2°
Voelt als: -5.8°
1014.0 hPa 1.8 mm
82%
-4.9°
2
Windvlaag: 4.6 km/h
87%18 cm warningclass
01:00
-2°
Voelt als: -6.4°
1014.4 hPa 1.7 mm
82%
-4.2°
3
Windvlaag: 5.2 km/h
85%18 cm warningclass
02:00
-2°
Voelt als: -6.5°
1014.6 hPa 1.9 mm
82%
-3.3°
3
Windvlaag: 5.9 km/h
90%19 cm warningclass
03:00
-2°
Voelt als: -5.5°
1014.8 hPa 2.0 mm
82%
-3.8°
2
Windvlaag: 4.4 km/h
89%19 cm warningclass
04:00
-2°
Voelt als: -6.1°
1014.7 hPa 2.2 mm
82%
-4.5°
3
Windvlaag: 5.3 km/h
90%20 cm warningclass
05:00
-2°
Voelt als: -6.0°
1015.1 hPa 3.3 mm
100%
-5.3°
3
Windvlaag: 6 km/h
96%22 cm warningclass
06:00
-2°
Voelt als: -5.4°
1015.1 hPa 3.3 mm
100%
-5.4°
2
Windvlaag: 5.6 km/h
97%22 cm warningclass
07:00
-2°
Voelt als: -6.2°
1015.3 hPa 3.3 mm
100%
-4.6°
3
Windvlaag: 5.8 km/h
95%22 cm warningclass
08:00
-2°
Voelt als: -5.9°
1015.2 hPa 2.5 mm
100%
-3.5°
3
Windvlaag: 5.4 km/h
95%22 cm warningclass
09:00
-1°
Voelt als: -5.6°
1015.2 hPa 3.5 mm
100%
-4.0°
4
Windvlaag: 6.1 km/h
96%22 cm warningclass
10:00
-1°
Voelt als: -5.7°
1015.4 hPa 3.5 mm
100%
-3.8°
4
Windvlaag: 7.4 km/h
97%23 cm warningclass
11:00
-1°
Voelt als: -6.4°
1015.3 hPa 2.5 mm
100%
-3.0°
6
Windvlaag: 9.1 km/h
91%22 cm warningclass
12:00
-1°
Voelt als: -4.3°
1015.6 hPa 2.8 mm
100%
-2.5°
3
Windvlaag: 8.5 km/h
75%22 cm warningclass
13:00
Voelt als: -3.7°
1015.7 hPa 3.6 mm
100%
-3.6°
4
Windvlaag: 5.9 km/h
78%21 cm warningclass
14:00
Voelt als: -3.5°
1015.6 hPa 3.5 mm
100%
-3.1°
4
Windvlaag: 6 km/h
94%20 cm warningclass
15:00
Voelt als: -3.2°
1015.4 hPa 5.7 mm
100%
-2.8°
3
Windvlaag: 3.9 km/h
93%19 cm warningclass
16:00
Voelt als: -3.5°
1015.0 hPa 5.7 mm
100%
-2.3°
4
Windvlaag: 4.9 km/h
87%19 cm warningclass
17:00
Voelt als: -3.5°
1014.4 hPa 3.7 mm
100%
-1.8°
4
Windvlaag: 5.3 km/h
89%19 cm warningclass
18:00
Voelt als: -3.7°
1014.0 hPa 3.7 mm
100%
-1.6°
4
Windvlaag: 6.2 km/h
89%19 cm warningclass
19:00
Voelt als: -3.9°
1013.5 hPa 3.9 mm
100%
-1.6°
4
Windvlaag: 7 km/h
90%20 cm warningclass
20:00
Voelt als: -3.9°
1013.0 hPa
96%
-1.5°
4
Windvlaag: 3.6 km/h
96%20 cm
21:00
-0°
Voelt als: -4.0°
1012.2 hPa
95%
-1.7°
4
Windvlaag: 7.3 km/h
99%20 cm
22:00
-0°
Voelt als: -3.8°
1011.3 hPa 6.5 mm
57%
-1.6°
3
Windvlaag: 7.1 km/h
98%20 cm warningclass
23:00
-0°
Voelt als: -3.8°
1010.2 hPa 7.5 mm
100%
-1.8°
3
Windvlaag: 6.5 km/h
97%20 cm warningclass
 04:54     20:38    Daglengte: 15:44 Zondag 12 Apr
00:00
-1°
Voelt als: -3.7°
1009.3 hPa 4.8 mm
100%
-2.2°
2
Windvlaag: 5.7 km/h
99%20 cm warningclass
01:00
-1°
Voelt als: -3.7°
1008.3 hPa 4.4 mm
100%
-2.3°
2
Windvlaag: 2.1 km/h
95%20 cm warningclass
02:00
-1°
Voelt als: -3.7°
1007.6 hPa 4.7 mm
100%
-2.5°
2
Windvlaag: 1.1 km/h
96%20 cm warningclass
03:00
-1°
Voelt als: -3.2°
1007.6 hPa 7.4 mm
100%
-2.6°
2
Windvlaag: 1.5 km/h
95%20 cm warningclass
04:00
-1°
Voelt als: -3.7°
1006.8 hPa 6.7 mm
100%
-2.8°
2
Windvlaag: 1 km/h
93%20 cm warningclass
05:00
-2°
Voelt als: -4.6°
1006.3 hPa 7.3 mm
100%
-3.1°
2
Windvlaag: 1.7 km/h
95%20 cm warningclass
06:00
-2°
Voelt als: -4.5°
1006.0 hPa 7.0 mm
100%
-3.3°
2
Windvlaag: 1.7 km/h
86%20 cm warningclass
07:00
-2°
Voelt als: -4.7°
1005.5 hPa 6.7 mm
100%
-3.4°
2
Windvlaag: 2.2 km/h
96%20 cm warningclass
08:00
-2°
Voelt als: -4.8°
1005.0 hPa 6.8 mm
100%
-3.4°
2
Windvlaag: 0.4 km/h
93%20 cm warningclass
09:00
-2°
Voelt als: -4.4°
1004.6 hPa 6.9 mm
100%
-3.7°
2
Windvlaag: 2.1 km/h
90%20 cm warningclass
10:00
-1°
Voelt als: -3.5°
1004.3 hPa 6.6 mm
100%
-3.6°
2
Windvlaag: 2.1 km/h
90%20 cm warningclass
11:00
-0°
Voelt als: -2.9°
1003.9 hPa
44%
-3.7°
2
Windvlaag: 2.9 km/h
61%20 cm
Temp/Neerslag /Baro Onweer/DauwpuntSneeuw
    Temp Baro Neerslag Dauwpunt Wind BewolkingSneeuw  
 05:08     20:25    Daglengte: 15:17 Vandaag
14:00
-2°
Voelt als: -7.5°
1011.3 hPa   -7.3°
5
57%10 cm
17:00
-2°
Voelt als: -5.6°
1011.8 hPa   -8.4°
2
43%11 cm
20:00
-3°
Voelt als: -7.7°
1010.8 hPa   -6.1°
4
76%11 cm
23:00
-3°
Voelt als: -7.2°
1010.5 hPa 0.9 mm -5.0°
4
73%11 cm warningclass
 05:04     20:29    Daglengte: 15:25 Morgen
02:00
-3°
Voelt als: -7.4°
1010.8 hPa 2.5 mm -4.6°
4
76%13 cm warningclass
05:00
-3°
Voelt als: -7.2°
1010.6 hPa 2.9 mm -5.7°
3
73%13 cm warningclass
08:00
-2°
Voelt als: -7.7°
1010.1 hPa 3.8 mm -5.3°
5
80%15 cm warningclass
11:00
-1°
Voelt als: -6.0°
1010.3 hPa 3.9 mm -5.0°
4
85%15 cm warningclass
14:00
-1°
Voelt als: -6.2°
1010.3 hPa 4.1 mm -3.6°
5
88%16 cm warningclass
17:00
-1°
Voelt als: -5.2°
1011.2 hPa 5.9 mm -4.4°
3
87%17 cm warningclass
20:00
-2°
Voelt als: -5.8°
1012.6 hPa 5.7 mm -3.8°
3
84%17 cm warningclass
23:00
-2°
Voelt als: -5.8°
1013.8 hPa 4.0 mm -4.1°
2
85%18 cm warningclass
 04:59     20:33    Daglengte: 15:34 Zaterdag 11 Apr
02:00
-2°
Voelt als: -6.5°
1014.6 hPa 5.3 mm -3.3°
3
90%19 cm warningclass
05:00
-2°
Voelt als: -6.0°
1015.1 hPa 7.5 mm -5.3°
3
96%22 cm warningclass
08:00
-2°
Voelt als: -5.9°
1015.2 hPa 9.2 mm -3.5°
3
95%22 cm warningclass
11:00
-1°
Voelt als: -6.4°
1015.3 hPa 9.4 mm -3.0°
6
91%22 cm warningclass
14:00
Voelt als: -3.5°
1015.6 hPa 9.9 mm -3.1°
4
94%20 cm warningclass
17:00
Voelt als: -3.5°
1014.4 hPa 15.1 mm -1.8°
4
89%19 cm warningclass
20:00
Voelt als: -3.9°
1013.0 hPa 7.6 mm -1.5°
4
96%20 cm warningclass
23:00
-0°
Voelt als: -3.8°
1010.2 hPa 13.9 mm -1.8°
3
97%20 cm warningclass
 04:54     20:38    Daglengte: 15:44 Zondag 12 Apr
02:00
-1°
Voelt als: -3.7°
1007.6 hPa 13.9 mm -2.5°
2
96%20 cm warningclass
05:00
-2°
Voelt als: -4.6°
1006.3 hPa 21.4 mm -3.1°
2
95%20 cm warningclass
08:00
-2°
Voelt als: -4.8°
1005.0 hPa 20.6 mm -3.4°
2
93%20 cm warningclass
11:00
-0°
Voelt als: -2.9°
1003.9 hPa 13.5 mm -3.7°
2
61%20 cm warningclass
14:00
Voelt als: -3.6°
1003.5 hPa   -4.1°
4
99%18 cm
17:00
Voelt als: -2.8°
1003.1 hPa 42.6 mm -2.6°
4
91% warningclass
20:00
Voelt als: -3.7°
1003.7 hPa 43.5 mm -2.4°
4
91% warningclass
23:00
Voelt als: -4.5°
1004.2 hPa 44.9 mm -2.1°
5
91% warningclass
 04:49     20:42    Daglengte: 15:53 Maandag 13 Apr
02:00
Voelt als: -5.1°
1004.6 hPa 45.3 mm -1.9°
6
92% warningclass
05:00
-0°
Voelt als: -5.6°
1009.0 hPa 45.4 mm -2.7°
6
85% warningclass
08:00
-0°
Voelt als: -5.6°
1013.4 hPa 45.4 mm -3.2°
6
79% warningclass
11:00
Voelt als: -4.9°
1014.5 hPa 45.6 mm -3.3°
5
73% warningclass
14:00
Voelt als: -4.2°
1015.4 hPa 45.9 mm -3.8°
5
66% warningclass
17:00
Voelt als: -4.1°
1015.1 hPa 46.1 mm -3.9°
4
73% warningclass
20:00
-1°
Voelt als: -4.0°
1014.9 hPa 46.2 mm -4.4°
3
80% warningclass
23:00
-1°
Voelt als: -4.4°
1013.1 hPa 46.2 mm -4.0°
3
86% warningclass
 04:45     20:46    Daglengte: 16:01 Dinsdag 14 Apr
02:00
-1°
Voelt als: -4.5°
1011.1 hPa 46.2 mm -3.7°
3
92% warningclass
05:00
-1°
Voelt als: -5.2°
1008.3 hPa 46.2 mm -3.7°
4
92% warningclass
08:00
-1°
Voelt als: -5.7°
1005.4 hPa 46.4 mm -3.6°
5
92% warningclass
11:00
Voelt als: -5.1°
999.5 hPa 47.1 mm -2.5°
6
92% warningclass
14:00
Voelt als: -4.1°
993.7 hPa 49.1 mm -1.4°
8
92%
17:00
Voelt als: -3.9°
993.4 hPa 51.7 mm -0.8°
7
92%
20:00
Voelt als: -3.9°
993.3 hPa 54.2 mm -0.3°
7
92%
23:00
Voelt als: -3.5°
993.2 hPa 56.2 mm 0.2°
7
92%
 04:40     20:51    Daglengte: 16:11 Woensdag 15 Apr
02:00
Voelt als: -3.1°
993.1 hPa 57.0 mm 0.7°
7
92%
05:00
Voelt als: -2.9°
992.8 hPa 57.9 mm 1.2°
8
92%
08:00
Voelt als: -2.7°
992.3 hPa 59.0 mm 1.7°
8
92%
11:00
Voelt als: -1.8°
993.0 hPa 61.4 mm 2.2°
8
92%
14:00
Voelt als: -1.0°
993.7 hPa 64.7 mm 2.6°
7
92%
17:00
Voelt als: -1.7°
995.4 hPa 71.5 mm 2.3°
8
92%
20:00
Voelt als: -2.3°
997.3 hPa 76.7 mm 2.0°
9
92%
23:00
Voelt als: -2.5°
997.6 hPa 80.8 mm 1.9°
9
92%
 04:35     20:55    Daglengte: 16:20 Donderdag 16 Apr
02:00
Voelt als: -2.6°
997.8 hPa 84.6 mm 1.8°
8
92%
05:00
Voelt als: -2.7°
996.0 hPa 88.3 mm 1.6°
8
92%
08:00
Voelt als: -2.8°
994.0 hPa 91.6 mm 1.3°
8
92%
11:00
Voelt als: -1.9°
994.8 hPa   1.8°
8
92%
14:00
Voelt als: -0.9°
995.4 hPa 188.1 mm 2.4°
7
92%
20:00
Voelt als: -3.2°
997.7 hPa 193.3 mm 0.5°
7
91%
 04:30     21:00    Daglengte: 16:30 Vrijdag 17 Apr
02:00
Voelt als: -2.8°
999.1 hPa 197.3 mm 0.4°
7
91%
08:00
Voelt als: -1.9°
1005.1 hPa 202.4 mm -0.3°
5
87%
14:00
Voelt als: -1.7°
1004.6 hPa 207.2 mm 1.4°
8
92%
20:00
Voelt als: -3.9°
1006.0 hPa 212.3 mm -0.4°
9
92%
 04:25     21:04    Daglengte: 16:39 Zaterdag 18 Apr
02:00
Voelt als: -3.7°
1005.0 hPa 220.6 mm 0.4°
8
92%
08:00
Voelt als: -2.0°
1002.8 hPa 245.1 mm 1.4°
8
92%
14:00
Voelt als: -1.6°
1006.7 hPa 255.9 mm 2.4°
10
1%
20:00
Voelt als: -1.5°
1013.9 hPa 258.5 mm 1.4°
8
1%
 04:20     21:09    Daglengte: 16:49 Zondag 19 Apr
02:00
Voelt als: 0.8°
1017.7 hPa 259.3 mm 3.3°
3
1%
08:00
Voelt als: -2.6°
1001.6 hPa 1.4 mm -0.2°
7
74%
14:00
Voelt als: -2.0°
1003.3 hPa 1.7 mm 0.8°
6
72%
20:00
Voelt als: -3.3°
1004.5 hPa 1.2 mm -0.9°
6
74%
 04:15     21:13    Daglengte: 16:58 Maandag 20 Apr
02:00
Voelt als: -4.6°
1006.3 hPa 0.9 mm -2.4°
6
70%
08:00
Voelt als: -3.4°
1007.5 hPa 1.3 mm -1.7°
5
69%
14:00
Voelt als: -2.2°
1009.2 hPa 1.2 mm -0.4°
5
71%
20:00
Voelt als: -2.5°
1008.4 hPa 1.2 mm -1.4°
4
69%
 04:10     21:18    Daglengte: 17:08 Dinsdag 21 Apr
02:00
Voelt als: -3.4°
1007.3 hPa 1.1 mm -2.3°
4
63%
08:00
Voelt als: -1.5°
1006.1 hPa 0.9 mm -1.0°
3
74%
14:00
Voelt als: -0.0°
1005.2 hPa 1.2 mm 0.5°
3
76%
20:00
Voelt als: -0.1°
1003.4 hPa 2.2 mm -0.4°
2
81%
 04:05     21:23    Daglengte: 17:18 Woensdag 22 Apr
02:00
Voelt als: -1.4°
1003.6 hPa 2.0 mm -1.9°
2
77%
08:00
Voelt als: -0.8°
1004.3 hPa 2.3 mm -1.2°
2
71%
14:00
Voelt als: 0.4°
1005.9 hPa 2.1 mm -0.6°
2
69%
20:00
Voelt als: -0.9°
1007.2 hPa 2.0 mm -1.8°
2
74%
 04:00     21:27    Daglengte: 17:27 Donderdag 23 Apr
02:00
-0°
Voelt als: -1.5°
1008.2 hPa 1.3 mm -2.7°
1
77%
08:00
Voelt als: -2.0°
1008.2 hPa 0.9 mm -2.2°
3
76%
14:00
Voelt als: -1.4°
1009.1 hPa 0.8 mm -1.0°
3
70%
20:00
Voelt als: -1.5°
1009.5 hPa 1.4 mm -1.7°
2
75%
 03:55     21:32    Daglengte: 17:37 Vrijdag 24 Apr
02:00
Voelt als: -3.0°
1010.7 hPa 0.9 mm -2.7°
3
69%
08:00
Voelt als: -2.3°
1010.7 hPa 1.1 mm -1.9°
3
74%
  CAPE Lifted Index Hail Supercell Tornado SRH 3km CL BTM PRES CL TOP PRES Swiss DWD icon SMHI TS
 05:08     20:25    Daglengte: 15:17 Vandaag
12:00 12 J/kg 12.6 K 0 % 0 % 0 % 0 m²/s² 0 0 16.44 3
13:00 18 J/kg 12.3 K 0 % 0 % 0 % 0 m²/s² 0 0 16.02 3
14:00 34 J/kg 11.5 K 0 % 0 % 0 % 0 m²/s² 0 0 14.89 2
15:00 33 J/kg 11.7 K 0 % 0 % 0 % 0 m²/s² 0 0 14.91 3
16:00 26 J/kg 11.9 K 0 % 0 % 0 % 0 m²/s² 0 0 15.26 2
17:00 23 J/kg 11.4 K 0 % 0 % 0 % 0 m²/s² 0 0 14.67 3
18:00 30 J/kg 10.5 K 0 % 0 % 0 % 0 m²/s² 0 0 13.2 3
19:00 17 J/kg 9.9 K 0 % 0 % 0 % 0 m²/s² 0 0 12.45 3
20:00 3 J/kg 9.6 K 0 % 0 % 0 % 0 m²/s² 0 0 11.88 3
21:00 0 J/kg 9.7 K 0 % 0 % 0 % 0 m²/s² 0 0 11.47 3
22:00 0 J/kg 9.4 K 0 % 0 % 0 % 0 m²/s² 0 0 10.9 85
23:00 0 J/kg 8.9 K 0 % 0 % 0 % 0 m²/s² 0 0 10.04 85
 05:04     20:29    Daglengte: 15:25 Morgen
00:00 4 J/kg 7.5 K 0 % 0 % 0 % 0 m²/s² 0 0 8.4 85
01:00 44 J/kg 8.2 K 0 % 0 % 0 % 0 m²/s² 0 0 9.43 85
02:00 14 J/kg 8.7 K 0 % 0 % 0 % 0 m²/s² 0 0 11.19 85
03:00 32 J/kg 9.0 K 0 % 0 % 0 % 0 m²/s² 0 0 11.28 85
04:00 35 J/kg 8.4 K 0 % 0 % 0 % 0 m²/s² 0 0 9.48 85
05:00 3 J/kg 9.1 K 0 % 0 % 0 % 0 m²/s² 0 0 10.48 85
06:00 30 J/kg 7.6 K 0 % 0 % 0 % 0 m²/s² 0 0 8.68 85
07:00 32 J/kg 7.3 K 0 % 0 % 0 % 0 m²/s² 0 0 8.2 85
08:00 29 J/kg 7.0 K 0 % 0 % 0 % 0 m²/s² 0 0 7.87 85
09:00 45 J/kg 6.5 K 0 % 0 % 0 % 0 m²/s² 0 0 7.31 85
10:00 45 J/kg 6.0 K 0 % 0 % 0 % 0 m²/s² 0 0 6.99 85
11:00 34 J/kg 6.3 K 0 % 0 % 0 % 0 m²/s² 0 0 7.23 85
12:00 74 J/kg 5.5 K 0 % 0 % 0 % 0 m²/s² 0 0 6.22 85
13:00 19 J/kg 5.4 K 0 % 0 % 0 % 0 m²/s² 0 0 6.27 85
14:00 23 J/kg 5.5 K 0 % 0 % 0 % 0 m²/s² 0 0 6.52 85
15:00 98 J/kg 5.2 K 0 % 0 % 0 % 0 m²/s² 0 0 6.1 85
16:00 46 J/kg 5.7 K 0 % 0 % 0 % 0 m²/s² 0 0 6.57 85
17:00 66 J/kg 4.8 K 0 % 0 % 0 % 0 m²/s² 0 0 5.7 85
18:00 55 J/kg 4.8 K 0 % 0 % 0 % 0 m²/s² 0 0 5.85 85
19:00 73 J/kg 4.8 K 0 % 0 % 0 % 0 m²/s² 0 0 5.7 85
20:00 58 J/kg 5.4 K 0 % 0 % 0 % 0 m²/s² 0 0 6.27 85
21:00 44 J/kg 5.4 K 0 % 0 % 0 % 0 m²/s² 0 0 6.24 85
22:00 47 J/kg 5.5 K 0 % 0 % 0 % 0 m²/s² 0 0 6.34 85
23:00 48 J/kg 5.4 K 0 % 0 % 0 % 0 m²/s² 0 0 6.24 85
 04:59     20:33    Daglengte: 15:34 Zaterdag 11 Apr
00:00 30 J/kg 5.7 K 0 % 0 % 0 % 0 m²/s² 0 0 6.54 85
01:00 25 J/kg 5.8 K 0 % 0 % 0 % 0 m²/s² 0 0 6.58 85
02:00 5 J/kg 5.7 K 0 % 0 % 0 % 0 m²/s² 0 0 6.42 85
03:00 26 J/kg 5.7 K 0 % 0 % 0 % 0 m²/s² 0 0 6.42 85
04:00 51 J/kg 5.6 K 0 % 0 % 0 % 0 m²/s² 0 0 6.35 85
05:00 20 J/kg 5.8 K 0 % 0 % 0 % 0 m²/s² 0 0 6.67 85
06:00 35 J/kg 6.2 K 0 % 0 % 0 % 0 m²/s² 0 0 7.25 85
07:00 28 J/kg 6.3 K 0 % 0 % 0 % 0 m²/s² 0 0 7.26 85
08:00 45 J/kg 5.9 K 0 % 0 % 0 % 0 m²/s² 0 0 6.77 85
09:00 21 J/kg 6.1 K 0 % 0 % 0 % 0 m²/s² 0 0 7.03 85
10:00 67 J/kg 5.4 K 0 % 0 % 0 % 0 m²/s² 0 0 6.36 85
11:00 36 J/kg 6.4 K 0 % 0 % 0 % 0 m²/s² 0 0 7.78 85
12:00 25 J/kg 7.1 K 0 % 0 % 0 % 0 m²/s² 0 0 8.9 85
13:00 30 J/kg 7.2 K 0 % 0 % 0 % 0 m²/s² 0 0 8.52 85
14:00 37 J/kg 6.8 K 0 % 0 % 0 % 0 m²/s² 0 0 7.64 85
15:00 21 J/kg 7.1 K 0 % 0 % 0 % 0 m²/s² 0 0 8.33 85
16:00 1 J/kg 6.6 K 0 % 0 % 0 % 0 m²/s² 0 0 7.44 85
17:00 21 J/kg 5.6 K 0 % 0 % 0 % 0 m²/s² 0 0 7.25 85
18:00 67 J/kg 5.6 K 0 % 0 % 0 % 0 m²/s² 0 0 6.71 85
19:00 43 J/kg 5.9 K 0 % 0 % 0 % 0 m²/s² 0 0 8.09 85
20:00 48 J/kg 6.2 K 0 % 0 % 0 % 0 m²/s² 0 0 8.72 85
21:00 21 J/kg 6.3 K 0 % 0 % 0 % 0 m²/s² 0 0 8.4 3
22:00 55 J/kg 5.6 K 0 % 0 % 0 % 0 m²/s² 0 0 7.7 3
23:00 56 J/kg 5.6 K 0 % 0 % 0 % 0 m²/s² 0 0 7.91 71
 04:54     20:38    Daglengte: 15:44 Zondag 12 Apr
00:00 38 J/kg 6.4 K 0 % 0 % 0 % 0 m²/s² 0 0 8.5 71
01:00 20 J/kg 6.8 K 0 % 0 % 0 % 0 m²/s² 0 0 8.9 71
02:00 30 J/kg 6.8 K 0 % 0 % 0 % 0 m²/s² 0 0 8.6 73
03:00 40 J/kg 6.7 K 0 % 0 % 0 % 0 m²/s² 0 0 8.5 73
04:00 21 J/kg 6.2 K 0 % 0 % 0 % 0 m²/s² 0 0 7.61 85
05:00 0 J/kg 6.1 K 0 % 0 % 0 % 0 m²/s² 0 0 7.06 73
06:00 0 J/kg 5.7 K 0 % 0 % 0 % 0 m²/s² 0 0 6.84 71
07:00 0 J/kg 5.3 K 0 % 0 % 0 % 0 m²/s² 0 0 6.65 71
08:00 0 J/kg 4.9 K 0 % 0 % 0 % 0 m²/s² 0 0 6.52 71
09:00 0 J/kg 4.3 K 0 % 0 % 0 % 0 m²/s² 0 0 6.28 71
10:00 11 J/kg 3.7 K 0 % 0 % 0 % 0 m²/s² 0 0 5.62 71
11:00 32 J/kg 2.6 K 0 % 0 % 0 % 0 m²/s² 0 0 4.04 2
Temp Baro Wind Neerslag
  EWN Forecast EWN WRFDA DWD ICON FMI HIRLAM MET Norway GFS
 05:08     20:25    Daglengte: 15:17 Vandaag
14:00 -2.2° 1011.3 hPa 4.7 m/s 0.0 mm -2.9° 1008.5 hPa 5.2 m/s 1.5 mm -2.9° 1011.1 hPa 2.5 m/s -1.6 mm -2.4° 1011.4 hPa 5.1 m/s 0.0 mm -1.7° 1011.7 hPa 5.6 m/s -2.3° 1011.2 hPa 3.7 m/s
17:00 -2.3° 1011.8 hPa 2.3 m/s 0.0 mm -2.7° 1009.8 hPa 4.0 m/s 2.7 mm -2.4° 1011.5 hPa 2.0 m/s 0.0 mm -2.2° 1012.0 hPa 2.1 m/s 0.0 mm -2.5° 1012.5 hPa 2.2 m/s -2.5° 1011.6 hPa 3.0 m/s
20:00 -2.9° 1010.8 hPa 3.8 m/s 0.0 mm -3.9° 1009.0 hPa 3.6 m/s 3.3 mm -3.0° 1010.5 hPa 2.7 m/s 0.1 mm -1.4° 1010.0 hPa 6.2 m/s 0.0 mm -4.4° 1011.6 hPa 3.3 m/s -3.3° 1011.3 hPa 4.0 m/s
23:00 -2.6° 1010.5 hPa 3.8 m/s 0.9 mm -4.9° 1008.0 hPa 4.7 m/s 3.5 mm -2.5° 1010.8 hPa 1.7 m/s 0.4 mm -0.6° 1009.3 hPa 6.0 m/s 0.0 mm -3.6° 1010.7 hPa 3.4 m/s -4.7° 1010.7 hPa 4.6 m/s
 05:04     20:29    Daglengte: 15:25 Morgen
02:00 -2.6° 1010.8 hPa 3.9 m/s 2.5 mm -2.9° 1008.6 hPa 4.8 m/s 7.9 mm -2.8° 1011.1 hPa 2.6 m/s 1.1 mm -1.6° 1009.9 hPa 6.1 m/s 0.0 mm -3.1° 1011.1 hPa 2.5 m/s -2.3° 1011.2 hPa 5.3 m/s
05:00 -2.9° 1010.6 hPa 3.2 m/s 2.9 mm -4.2° 1008.8 hPa 3.8 m/s 10.4 mm -3.2° 1010.9 hPa 2.3 m/s 0.9 mm -1.9° 1009.9 hPa 6.1 m/s 0.0 mm -3.4° 1010.8 hPa 1.8 m/s -2.9° 1011.3 hPa 5.4 m/s
08:00 -2.4° 1010.1 hPa 4.5 m/s 3.8 mm -2.5° 1008.1 hPa 4.8 m/s 14.7 mm -3.2° 1010.9 hPa 2.6 m/s 0.8 mm -1.5° 1009.2 hPa 5.5 m/s 0.0 mm -2.9° 1010.3 hPa 4.8 m/s -2.2° 1010.4 hPa 5.9 m/s
11:00 -1.1° 1010.3 hPa 4.5 m/s 3.9 mm -0.8° 1008.1 hPa 6.6 m/s 17.2 mm -2.6° 1011.0 hPa 3.0 m/s 1.0 mm -1.1° 1009.5 hPa 5.3 m/s 0.0 mm -1.0° 1010.4 hPa 4.0 m/s -1.4° 1010.6 hPa 6.7 m/s
14:00 -1.0° 1010.3 hPa 5.1 m/s 4.1 mm -1.6° 1008.7 hPa 8.2 m/s 21.0 mm -2.1° 1010.8 hPa 1.9 m/s 1.4 mm -0.4° 1009.6 hPa 5.7 m/s 0.0 mm -0.8° 1010.5 hPa 4.4 m/s -1.1° 1011.2 hPa 5.9 m/s
17:00 -1.1° 1011.2 hPa 3.5 m/s 5.9 mm -1.8° 1009.5 hPa 6.3 m/s 24.9 mm -1.9° 1011.2 hPa 2.1 m/s 1.0 mm -0.5° 1010.6 hPa 6.1 m/s 0.0 mm -1.1° 1011.7 hPa 3.2 m/s -1.3° 1011.9 hPa 5.7 m/s
20:00 -1.9° 1012.6 hPa 3.0 m/s 5.7 mm -2.0° 1011.1 hPa 5.2 m/s 27.4 mm -2.3° 1012.6 hPa 1.0 m/s 1.0 mm -0.5° 1011.2 hPa 6.6 m/s 0.0 mm -3.0° 1013.0 hPa 1.9 m/s -2.0° 1013.4 hPa 4.9 m/s
23:00 -2.3° 1013.8 hPa 2.5 m/s 4.0 mm -3.1° 1012.4 hPa 2.4 m/s 30.0 mm -2.5° 1013.6 hPa 1.1 m/s 0.7 mm -0.7° 1012.3 hPa 5.4 m/s 0.0 mm -3.4° 1014.4 hPa 1.6 m/s -2.3° 1014.7 hPa 3.5 m/s
 04:59     20:33    Daglengte: 15:34 Zaterdag 11 Apr
02:00 -2.2° 1014.6 hPa 3.3 m/s 5.3 mm -2.5° 1013.4 hPa 4.4 m/s 31.5 mm -2.7° 1014.6 hPa 1.4 m/s 0.7 mm -0.8° 1013.4 hPa 5.0 m/s 0.0 mm -3.0° 1015.5 hPa 2.0 m/s -2.7° 1016.0 hPa 3.7 m/s
05:00 -2.0° 1015.1 hPa 3.2 m/s 7.5 mm -2.2° 1013.0 hPa 8.1 m/s 39.7 mm -2.6° 1015.1 hPa 1.6 m/s 1.0 mm -2.2° 1015.8 hPa 2.5 m/s -2.5° 1015.7 hPa 3.3 m/s
08:00 -2.0° 1015.2 hPa 3.0 m/s 9.2 mm -1.4° 1013.5 hPa 5.7 m/s 44.3 mm -2.5° 1015.4 hPa 2.1 m/s 1.0 mm -2.3° 1016.1 hPa 2.6 m/s -1.3° 1015.8 hPa 4.5 m/s
11:00 -0.7° 1015.3 hPa 6.1 m/s 9.4 mm -0.1° 1013.6 hPa 7.1 m/s 47.2 mm -2.2° 1016.1 hPa 2.0 m/s 1.0 mm -0.8° 1015.8 hPa 7.0 m/s -0.1° 1015.7 hPa 6.2 m/s
14:00 0.4° 1015.6 hPa 3.5 m/s 9.9 mm -0.3° 1013.7 hPa 3.6 m/s 48.9 mm -1.5° 1016.1 hPa 2.5 m/s 1.3 mm 0.6° 1016.4 hPa 4.5 m/s 0.6° 1015.5 hPa 5.3 m/s
17:00 0.6° 1014.4 hPa 4.0 m/s 15.1 mm 0.3° 1010.3 hPa 5.3 m/s 50.5 mm -1.4° 1015.1 hPa 2.5 m/s 0.8 mm 0.9° 1015.1 hPa 4.2 m/s -0.1° 1013.6 hPa 4.4 m/s
20:00 0.1° 1013.0 hPa 3.8 m/s 7.6 mm 0.1° 1008.4 hPa 6.4 m/s 55.7 mm -1.6° 1013.8 hPa 1.7 m/s 0.5 mm 1.3° 1013.8 hPa 3.8 m/s 0.6° 1011.8 hPa 7.7 m/s
23:00 -0.3° 1010.2 hPa 2.9 m/s 13.9 mm -0.3° 1007.3 hPa 4.5 m/s 57.0 mm -2.4° 1010.4 hPa 1.6 m/s 0.1 mm 0.9° 1011.6 hPa 3.0 m/s -0.5° 1010.3 hPa 2.9 m/s
 04:54     20:38    Daglengte: 15:44 Zondag 12 Apr
02:00 -1.1° 1007.6 hPa 2.0 m/s 13.9 mm -4.8° 1006.7 hPa 1.8 m/s 57.9 mm -3.1° 1007.3 hPa 1.1 m/s 2.9 mm 0.5° 1009.5 hPa 2.1 m/s -2.5° 1009.1 hPa 0.4 m/s
05:00 -1.6° 1006.3 hPa 2.2 m/s 21.4 mm -4.4° 1004.4 hPa 1.5 m/s 58.0 mm -3.2° 1005.8 hPa 3.6 m/s 3.0 mm 0.2° 1007.1 hPa 2.0 m/s -3.0° 1006.7 hPa 1.7 m/s
08:00 -1.8° 1005.0 hPa 2.2 m/s 20.6 mm -4.6° 1003.7 hPa 2.5 m/s 58.1 mm -3.2° 1006.7 hPa 2.6 m/s 1.8 mm 0.0° 1004.8 hPa 1.9 m/s -2.4° 1005.7 hPa 1.1 m/s
11:00 -0.3° 1003.9 hPa 2.0 m/s 13.5 mm -1.4° 1003.1 hPa 0.7 m/s 58.1 mm -2.8° 1007.5 hPa 2.1 m/s 0.9 mm 1.1° 1003.3 hPa 2.2 m/s -0.9° 1005.3 hPa 2.9 m/s
14:00 0.3° 1003.5 hPa 3.6 m/s 0.0 mm -1.6° 1003.8 hPa 7.0 m/s 58.3 mm -1.9° 1008.2 hPa 3.9 m/s 0.0 mm 2.2° 1001.9 hPa 2.6 m/s -0.6° 1006.5 hPa 4.0 m/s
17:00 1.0° 1003.1 hPa 3.6 m/s 42.6 mm 1.2° 1002.6 hPa 3.2 m/s -1.7° 1008.6 hPa 8.1 m/s 42.6 mm
20:00 0.3° 1003.7 hPa 3.8 m/s 43.5 mm 0.7° 1003.0 hPa 3.5 m/s -3.8° 1011.7 hPa 6.8 m/s 43.5 mm
23:00 0.3° 1004.2 hPa 5.0 m/s 44.9 mm 0.8° 1003.3 hPa 4.7 m/s -4.9° 1013.9 hPa 8.3 m/s 44.9 mm
 04:49     20:42    Daglengte: 15:53 Maandag 13 Apr
02:00 0.2° 1004.6 hPa 5.8 m/s 45.3 mm 0.8° 1003.6 hPa 5.8 m/s -6.6° 1015.4 hPa 6.2 m/s 45.3 mm
05:00 -0.2° 1009.0 hPa 5.8 m/s 45.4 mm 0.6° 1008.4 hPa 5.8 m/s -8.8° 1016.3 hPa 4.7 m/s 45.4 mm
08:00 -0.3° 1013.4 hPa 5.7 m/s 45.4 mm 0.3° 1013.1 hPa 5.9 m/s -6.3° 1017.3 hPa 4.0 m/s 45.4 mm
11:00 0.2° 1014.5 hPa 5.4 m/s 45.6 mm 0.6° 1014.1 hPa 5.6 m/s -5.1° 1018.3 hPa 3.6 m/s 45.6 mm
14:00 0.6° 1015.4 hPa 5.0 m/s 45.9 mm 1.0° 1015.1 hPa 5.2 m/s -4.2° 1018.8 hPa 3.4 m/s 45.9 mm
17:00 0.1° 1015.1 hPa 3.8 m/s 46.1 mm 0.5° 1014.9 hPa 4.0 m/s -4.4° 1018.3 hPa 2.1 m/s 46.1 mm
20:00 -0.5° 1014.9 hPa 2.8 m/s 46.2 mm 0.0° 1014.6 hPa 2.8 m/s -6.4° 1018.0 hPa 3.1 m/s 46.2 mm
23:00 -0.9° 1013.1 hPa 2.8 m/s 46.2 mm -0.3° 1012.8 hPa 2.5 m/s -7.0° 1015.9 hPa 5.9 m/s 46.2 mm
 04:45     20:46    Daglengte: 16:01 Dinsdag 14 Apr
02:00 -1.2° 1011.1 hPa 2.6 m/s 46.2 mm -0.7° 1011.0 hPa 2.2 m/s -6.5° 1012.2 hPa 6.7 m/s 46.2 mm
05:00 -1.0° 1008.3 hPa 3.5 m/s 46.2 mm -0.6° 1008.4 hPa 3.1 m/s -4.9° 1007.5 hPa 7.9 m/s 46.2 mm
08:00 -0.8° 1005.4 hPa 4.6 m/s 46.4 mm -0.6° 1005.7 hPa 4.1 m/s -3.4° 1002.2 hPa 10.0 m/s 46.4 mm
11:00 0.4° 999.5 hPa 6.2 m/s 47.1 mm 0.7° 999.6 hPa 5.8 m/s -2.7° 997.9 hPa 10.0 m/s 47.1 mm
14:00 1.6° 993.7 hPa 7.5 m/s 49.1 mm 1.9° 993.5 hPa 7.5 m/s -1.5° 995.9 hPa 7.8 m/s 49.1 mm
17:00 1.7° 993.4 hPa 7.4 m/s 51.7 mm 1.8° 993.3 hPa 7.5 m/s 1.0° 995.0 hPa 6.1 m/s 51.7 mm
20:00 1.7° 993.3 hPa 7.5 m/s 54.2 mm 1.7° 993.1 hPa 7.6 m/s 1.9° 995.5 hPa 6.0 m/s 54.2 mm
23:00 2.0° 993.2 hPa 7.1 m/s 56.2 mm 2.0° 992.9 hPa 7.3 m/s 1.4° 996.9 hPa 5.2 m/s 56.2 mm
 04:40     20:51    Daglengte: 16:11 Woensdag 15 Apr
02:00 2.2° 993.1 hPa 6.8 m/s 57.0 mm 2.3° 992.7 hPa 7.0 m/s 0.6° 997.6 hPa 5.0 m/s 57.0 mm
05:00 2.5° 992.8 hPa 7.6 m/s 57.9 mm 2.6° 992.3 hPa 7.8 m/s 1.1° 997.8 hPa 4.4 m/s 57.9 mm
08:00 2.9° 992.3 hPa 8.4 m/s 59.0 mm 3.0° 991.9 hPa 8.7 m/s 1.7° 997.0 hPa 5.1 m/s 59.0 mm
11:00 3.4° 993.0 hPa 7.8 m/s 61.4 mm 3.5° 992.8 hPa 8.1 m/s 2.0° 995.0 hPa 5.1 m/s 61.4 mm
14:00 3.9° 993.7 hPa 7.2 m/s 64.7 mm 4.1° 993.8 hPa 7.4 m/s 2.0° 992.1 hPa 5.6 m/s 64.7 mm
17:00 3.6° 995.4 hPa 8.2 m/s 71.5 mm 3.7° 995.9 hPa 8.4 m/s 2.8° 989.5 hPa 6.9 m/s 71.5 mm
20:00 3.3° 997.3 hPa 9.0 m/s 76.7 mm 3.3° 998.0 hPa 9.3 m/s 3.3° 989.3 hPa 5.2 m/s 76.7 mm
23:00 3.1° 997.6 hPa 8.6 m/s 80.8 mm 3.2° 998.1 hPa 8.8 m/s 2.0° 991.0 hPa 7.1 m/s 80.8 mm
 04:35     20:55    Daglengte: 16:20 Donderdag 16 Apr
02:00 3.0° 997.8 hPa 8.3 m/s 84.6 mm 3.1° 998.3 hPa 8.2 m/s 1.4° 992.9 hPa 9.1 m/s 84.6 mm
05:00 2.9° 996.0 hPa 8.3 m/s 88.3 mm 3.0° 996.1 hPa 8.2 m/s 1.1° 994.6 hPa 9.3 m/s 88.3 mm
08:00 2.8° 994.0 hPa 8.4 m/s 91.6 mm 3.0° 993.9 hPa 8.2 m/s 1.0° 995.5 hPa 10.5 m/s 91.6 mm
11:00 3.4° 994.8 hPa 8.0 m/s 93.0 mm 3.6° 994.5 hPa 7.6 m/s 0.7° 997.0 hPa 11.9 m/s 93.0 mm
14:00 4.0° 995.4 hPa 7.3 m/s 95.1 mm 4.3° 995.2 hPa 7.0 m/s 0.6° 998.1 hPa 10.1 m/s 95.1 mm
20:00 2.1° 997.7 hPa 7.0 m/s 97.1 mm 2.4° 997.4 hPa 7.0 m/s -0.8° 1000.9 hPa 6.5 m/s 97.1 mm
 04:30     21:00    Daglengte: 16:30 Vrijdag 17 Apr
02:00 2.3° 999.1 hPa 6.6 m/s 99.2 mm 2.7° 998.7 hPa 6.7 m/s -1.9° 1003.4 hPa 6.0 m/s 99.2 mm
08:00 2.2° 1005.1 hPa 4.7 m/s 101.7 mm 2.5° 1005.0 hPa 4.4 m/s -0.7° 1006.2 hPa 7.6 m/s 101.7 mm
14:00 3.6° 1004.6 hPa 8.4 m/s 104.6 mm 3.8° 1004.3 hPa 8.1 m/s 1.9° 1008.3 hPa 11.7 m/s 104.6 mm
20:00 2.0° 1006.0 hPa 8.6 m/s 106.7 mm 2.1° 1005.8 hPa 8.1 m/s 1.2° 1008.7 hPa 14.0 m/s 106.7 mm
 04:25     21:04    Daglengte: 16:39 Zaterdag 18 Apr
02:00 2.1° 1005.0 hPa 8.3 m/s 112.2 mm 2.2° 1005.1 hPa 8.1 m/s 1.4° 1004.3 hPa 10.6 m/s 112.2 mm
08:00 3.3° 1002.8 hPa 7.7 m/s 124.5 mm 3.2° 1002.8 hPa 7.4 m/s 4.0° 1002.3 hPa 11.1 m/s 124.5 mm
14:00 4.2° 1006.7 hPa 10.4 m/s 128.8 mm 4.2° 1006.7 hPa 10.4 m/s 128.8 mm
20:00 3.7° 1013.9 hPa 7.8 m/s 129.4 mm 3.7° 1013.9 hPa 7.8 m/s 129.4 mm
 04:20     21:09    Daglengte: 16:49 Zondag 19 Apr
02:00 3.8° 1017.7 hPa 3.4 m/s 129.7 mm 3.8° 1017.7 hPa 3.4 m/s 129.7 mm
08:00 2.4° 1001.6 hPa 6.5 m/s 1.4 mm
14:00 2.9° 1003.3 hPa 6.4 m/s 1.7 mm
20:00 1.7° 1004.5 hPa 5.9 m/s 1.2 mm
 04:15     21:13    Daglengte: 16:58 Maandag 20 Apr
02:00 0.6° 1006.3 hPa 5.8 m/s 0.9 mm
08:00 1.4° 1007.5 hPa 5.4 m/s 1.3 mm
14:00 2.3° 1009.2 hPa 5.3 m/s 1.2 mm
20:00 1.3° 1008.4 hPa 3.8 m/s 1.2 mm
 04:10     21:18    Daglengte: 17:08 Dinsdag 21 Apr
02:00 0.4° 1007.3 hPa 3.5 m/s 1.1 mm
08:00 1.8° 1006.1 hPa 3.2 m/s 0.9 mm
14:00 2.8° 1005.2 hPa 2.8 m/s 1.2 mm
20:00 1.9° 1003.4 hPa 1.8 m/s 2.2 mm
 04:05     21:23    Daglengte: 17:18 Woensdag 22 Apr
02:00 0.5° 1003.6 hPa 1.7 m/s 2.0 mm
08:00 1.3° 1004.3 hPa 1.9 m/s 2.3 mm
14:00 2.1° 1005.9 hPa 1.7 m/s 2.1 mm
20:00 0.9° 1007.2 hPa 1.6 m/s 2.0 mm
 04:00     21:27    Daglengte: 17:27 Donderdag 23 Apr
02:00 -0.0° 1008.2 hPa 1.4 m/s 1.3 mm
08:00 0.9° 1008.2 hPa 2.6 m/s 0.9 mm
14:00 1.9° 1009.1 hPa 3.2 m/s 0.8 mm
20:00 1.2° 1009.5 hPa 2.3 m/s 1.4 mm
 03:55     21:32    Daglengte: 17:37 Vrijdag 24 Apr
02:00 0.1° 1010.7 hPa 2.6 m/s 0.9 mm
08:00 1.0° 1010.7 hPa 2.9 m/s 1.1 mm
FMI Hirlam - 7.5 km EWN WRFDA - 12 km DWD ICON - 7 km GFS - 25 km Basiskaart






























































Updatetijd (Europe/Amsterdam) Resolutie Lengte Stap
FMI Hirlam 07:45, 13:45, 19:45, 01:45 7.5 km 49h 1h
EWN WRFDA 09:30, 15:30, 21:30, 03:30 12 km 73h 1h
DWD ICON 11:45, 17:45, 23:45, 05:45 7 km 75h 1h
GFS 08:00, 14:00, 20:00, 02:00 25 km 237h 3h
30+ mm
25-30 mm
20-25 mm
15-20 mm
10-15 mm
6-10 mm
4-6 mm
2-4 mm
1-2 mm
0.5-1 mm
0.2-0.5 mm
0.1-0.2 mm
30+ mm
25-30 mm
20-25 mm
15-20 mm
10-15 mm
6-10 mm
4-6 mm
2-4 mm
1-2 mm
0.5-1 mm
0.2-0.5 mm
0.1-0.2 mm
Sneeuwval
Natte sneeuw
Hagel
Vorst
30+ mm
25-30 mm
20-25 mm
15-20 mm
10-15 mm
6-10 mm
4-6 mm
2-4 mm
1-2 mm
0.5-1 mm
0.2-0.5 mm
0.1-0.2 mm
Sneeuwval
Natte sneeuw
Hagel
Vorst
Onweer
50 mm
40 mm
30 mm
26 mm
22 mm
18 mm
14 mm
10 mm
9 mm
8 mm
7 mm
6 mm
5 mm
4.5 mm
4 mm
3.5 mm
3 mm
2.5 mm
2 mm
1.5 mm
1 mm
0.8 mm
0.6 mm
0.4 mm
0.2 mm
0.05 mm
35°
30°
25°
20°
15°
10°
-5°
-10°
-15°
-20°
-25°
-30°
-35°
120> km/h
105 km/h
90 km/h
75 km/h
60 km/h
50 km/h
40 km/h
30 km/h
20 km/h
10 km/h
0 km/h
2600 J/kg
2400 J/kg
2200 J/kg
2000 J/kg
1800 J/kg
1600 J/kg
1400 J/kg
1200 J/kg
1000 J/kg
800 J/kg
600 J/kg
400 J/kg
200 J/kg
70 dBZ
65 dBZ
60 dBZ
55 dBZ
50 dBZ
45 dBZ
40 dBZ
35 dBZ
30 dBZ
25 dBZ
20 dBZ
15 dBZ
10 dBZ
5 dBZ
-1 K
-2 K
-3 K
-4 K
-5 K
-6 K
-7 K
-8 K
-9 K
950 m²/s²
900 m²/s²
850 m²/s²
800 m²/s²
750 m²/s²
700 m²/s²
650 m²/s²
600 m²/s²
550 m²/s²
500 m²/s²
450 m²/s²
400 m²/s²
350 m²/s²
300 m²/s²
250 m²/s²
200 m²/s²
150 m²/s²
100 m²/s²
46 m/s
44 m/s
42 m/s
40 m/s
38 m/s